Time,TemperatureF,DewpointF,PressureIn,WindDirection,WindDirectionDegrees,WindSpeedMPH,WindSpeedGustMPH,Humidity,HourlyPrecipIn,Conditions,Clouds,dailyrainin,SoftwareType,DateUTC
2013-07-29 00:01:00,56.1,29.5,17.72,North,1,0.0,0.0,36,0.00,,---,0.00,VWS V14.01,2013-07-29 04:01:00,
2013-07-29 00:06:00,55.8,29.2,17.72,North,1,0.0,0.0,36,0.00,,---,0.00,VWS V14.01,2013-07-29 04:06:00,
2013-07-29 00:11:00,55.6,29.1,17.72,North,1,0.0,0.0,36,0.00,,---,0.00,VWS V14.01,2013-07-29 04:11:00,
2013-07-29 00:16:00,55.4,28.9,17.72,North,1,0.0,0.0,36,0.00,,---,0.00,VWS V14.01,2013-07-29 04:16:00,
2013-07-29 00:21:00,55.4,28.9,17.72,North,1,0.0,0.0,36,0.00,,---,0.00,VWS V14.01,2013-07-29 04:21:00,
2013-07-29 00:26:00,55.0,28.6,17.72,North,1,0.0,0.0,36,0.00,,---,0.00,VWS V14.01,2013-07-29 04:26:00,
2013-07-29 00:31:00,54.7,28.3,17.72,North,1,0.0,0.0,36,0.00,,---,0.00,VWS V14.01,2013-07-29 04:31:00,
2013-07-29 00:36:00,54.5,28.1,17.72,North,1,0.0,0.0,36,0.00,,---,0.00,VWS V14.01,2013-07-29 04:36:00,
2013-07-29 00:41:00,54.5,28.1,17.72,North,1,0.0,0.0,36,0.00,,---,0.00,VWS V14.01,2013-07-29 04:41:00,
2013-07-29 00:46:00,54.3,28.0,17.72,North,1,0.0,0.0,36,0.00,,---,0.00,VWS V14.01,2013-07-29 04:46:00,
2013-07-29 00:51:00,54.0,27.6,17.72,North,1,0.0,0.0,36,0.00,,---,0.00,VWS V14.01,2013-07-29 04:51:00,
2013-07-29 00:56:00,53.8,27.5,17.72,North,1,0.0,0.0,36,0.00,,---,0.00,VWS V14.01,2013-07-29 04:56:00,
2013-07-29 01:02:00,53.6,27.3,17.72,North,1,0.0,0.0,36,0.00,,---,0.00,VWS V14.01,2013-07-29 05:02:00,
2013-07-29 01:07:00,53.4,27.8,17.72,North,1,0.0,0.0,37,0.00,,---,0.00,VWS V14.01,2013-07-29 05:07:00,
2013-07-29 01:12:00,53.4,27.8,17.72,North,1,0.0,0.0,37,0.00,,---,0.00,VWS V14.01,2013-07-29 05:12:00,
2013-07-29 01:17:00,53.2,27.7,17.72,North,1,0.0,0.0,37,0.00,,---,0.00,VWS V14.01,2013-07-29 05:17:00,
2013-07-29 01:22:00,53.1,27.5,17.72,North,1,0.0,0.0,37,0.00,,---,0.00,VWS V14.01,2013-07-29 05:22:00,
2013-07-29 01:27:00,53.1,27.5,17.72,North,1,0.0,0.0,37,0.00,,---,0.00,VWS V14.01,2013-07-29 05:27:00,
2013-07-29 01:32:00,52.9,27.3,17.72,North,1,0.0,0.0,37,0.00,,---,0.00,VWS V14.01,2013-07-29 05:32:00,
2013-07-29 01:37:00,52.7,27.2,17.72,North,1,0.0,0.0,37,0.00,,---,0.00,VWS V14.01,2013-07-29 05:37:00,
2013-07-29 01:42:00,52.5,27.0,17.72,North,1,0.0,0.0,37,0.00,,---,0.00,VWS V14.01,2013-07-29 05:42:00,
2013-07-29 01:47:00,52.5,27.0,17.72,North,1,0.0,0.0,37,0.00,,---,0.00,VWS V14.01,2013-07-29 05:47:00,
2013-07-29 01:52:00,52.5,27.0,17.72,North,1,0.0,0.0,37,0.00,,---,0.00,VWS V14.01,2013-07-29 05:52:00,
2013-07-29 01:57:00,52.3,26.9,17.72,North,1,0.0,0.0,37,0.00,,---,0.00,VWS V14.01,2013-07-29 05:57:00,
2013-07-29 02:02:00,52.3,26.9,17.72,North,1,0.0,0.0,37,0.00,,---,0.00,VWS V14.01,2013-07-29 06:02:00,
2013-07-29 02:07:00,52.2,26.7,17.72,North,1,0.0,0.0,37,0.00,,---,0.00,VWS V14.01,2013-07-29 06:07:00,
2013-07-29 02:12:00,52.2,26.7,17.72,North,1,0.0,0.0,37,0.00,,---,0.00,VWS V14.01,2013-07-29 06:12:00,
2013-07-29 02:17:00,52.0,26.5,17.72,North,1,0.0,0.0,37,0.00,,---,0.00,VWS V14.01,2013-07-29 06:17:00,
2013-07-29 02:22:00,52.0,26.5,17.72,North,1,0.0,0.0,37,0.00,,---,0.00,VWS V14.01,2013-07-29 06:22:00,
2013-07-29 02:27:00,52.0,26.5,17.72,North,1,0.0,0.0,37,0.00,,---,0.00,VWS V14.01,2013-07-29 06:27:00,
2013-07-29 02:32:00,52.0,26.5,17.72,North,1,0.0,0.0,37,0.00,,---,0.00,VWS V14.01,2013-07-29 06:32:00,
2013-07-29 02:37:00,51.8,26.4,17.72,North,1,0.0,0.0,37,0.00,,---,0.00,VWS V14.01,2013-07-29 06:37:00,
2013-07-29 02:42:00,51.8,26.4,17.72,North,1,0.0,0.0,37,0.00,,---,0.00,VWS V14.01,2013-07-29 06:42:00,
2013-07-29 02:47:00,51.8,26.4,17.72,North,1,0.0,0.0,37,0.00,,---,0.00,VWS V14.01,2013-07-29 06:47:00,
2013-07-29 02:52:00,51.6,26.2,17.72,North,1,0.0,0.0,37,0.00,,---,0.00,VWS V14.01,2013-07-29 06:52:00,
2013-07-29 02:57:00,51.6,26.2,17.72,North,1,0.0,0.0,37,0.00,,---,0.00,VWS V14.01,2013-07-29 06:57:00,
2013-07-29 03:02:00,51.4,26.0,17.72,North,1,0.0,0.0,37,0.00,,---,0.00,VWS V14.01,2013-07-29 07:02:00,
2013-07-29 03:07:00,51.6,26.2,17.72,North,1,0.0,0.0,37,0.00,,---,0.00,VWS V14.01,2013-07-29 07:07:00,
2013-07-29 03:12:00,51.4,26.0,17.72,North,1,0.0,0.0,37,0.00,,---,0.00,VWS V14.01,2013-07-29 07:12:00,
2013-07-29 03:17:00,51.4,26.0,17.72,North,1,0.0,0.0,37,0.00,,---,0.00,VWS V14.01,2013-07-29 07:17:00,
2013-07-29 03:22:00,51.4,26.0,17.72,North,1,0.0,0.0,37,0.00,,---,0.00,VWS V14.01,2013-07-29 07:22:00,
2013-07-29 03:27:00,51.4,26.0,17.72,North,1,0.0,0.0,37,0.00,,---,0.00,VWS V14.01,2013-07-29 07:27:00,
2013-07-29 03:32:00,51.3,25.9,17.72,North,1,0.0,0.0,37,0.00,,---,0.00,VWS V14.01,2013-07-29 07:32:00,
2013-07-29 03:37:00,51.4,26.0,17.72,North,1,0.0,0.0,37,0.00,,---,0.00,VWS V14.01,2013-07-29 07:37:00,
2013-07-29 03:42:00,51.3,25.9,17.72,North,1,0.0,0.0,37,0.00,,---,0.00,VWS V14.01,2013-07-29 07:42:00,
2013-07-29 03:47:00,51.3,25.9,17.72,North,1,0.0,0.0,37,0.00,,---,0.00,VWS V14.01,2013-07-29 07:47:00,
2013-07-29 03:52:00,51.3,25.9,17.72,North,1,0.0,0.0,37,0.00,,---,0.00,VWS V14.01,2013-07-29 07:52:00,
2013-07-29 03:57:00,51.3,25.9,17.72,North,1,0.0,0.0,37,0.00,,---,0.00,VWS V14.01,2013-07-29 07:57:00,
2013-07-29 04:02:00,51.3,25.9,17.72,North,1,0.0,0.0,37,0.00,,---,0.00,VWS V14.01,2013-07-29 08:02:00,
2013-07-29 04:07:00,51.3,25.9,17.72,North,1,0.0,0.0,37,0.00,,---,0.00,VWS V14.01,2013-07-29 08:07:00,
2013-07-29 04:12:00,51.3,25.9,17.72,North,1,0.0,0.0,37,0.00,,---,0.00,VWS V14.01,2013-07-29 08:12:00,
2013-07-29 04:17:00,51.3,25.9,17.72,North,1,0.0,0.0,37,0.00,,---,0.00,VWS V14.01,2013-07-29 08:17:00,
2013-07-29 04:22:00,51.1,25.7,17.72,North,1,0.0,0.0,37,0.00,,---,0.00,VWS V14.01,2013-07-29 08:22:00,
2013-07-29 04:27:00,50.9,25.6,17.72,North,1,0.0,0.0,37,0.00,,---,0.00,VWS V14.01,2013-07-29 08:27:00,
2013-07-29 04:32:00,50.9,25.6,17.72,North,1,0.0,0.0,37,0.00,,---,0.00,VWS V14.01,2013-07-29 08:32:00,
2013-07-29 04:37:00,50.9,25.6,17.72,North,1,0.0,0.0,37,0.00,,---,0.00,VWS V14.01,2013-07-29 08:37:00,
2013-07-29 04:42:00,50.7,25.4,17.72,North,1,0.0,0.0,37,0.00,,---,0.00,VWS V14.01,2013-07-29 08:42:00,
2013-07-29 04:47:00,50.9,25.6,17.72,North,1,0.0,0.0,37,0.00,,---,0.00,VWS V14.01,2013-07-29 08:47:00,
2013-07-29 04:52:00,50.7,25.4,17.72,North,1,0.0,0.0,37,0.00,,---,0.00,VWS V14.01,2013-07-29 08:52:00,
2013-07-29 04:57:00,50.7,25.4,17.72,North,1,0.0,0.0,37,0.00,,---,0.00,VWS V14.01,2013-07-29 08:57:00,
2013-07-29 05:02:00,50.7,25.4,17.72,North,1,0.0,0.0,37,0.00,,---,0.00,VWS V14.01,2013-07-29 09:02:00,
2013-07-29 05:07:00,50.7,25.4,17.72,North,1,0.0,0.0,37,0.00,,---,0.00,VWS V14.01,2013-07-29 09:07:00,
2013-07-29 05:12:00,50.5,25.2,17.72,North,1,0.0,0.0,37,0.00,,---,0.00,VWS V14.01,2013-07-29 09:12:00,
2013-07-29 05:17:00,50.5,25.2,17.72,North,1,0.0,0.0,37,0.00,,---,0.00,VWS V14.01,2013-07-29 09:17:00,
2013-07-29 05:22:00,50.5,25.2,17.72,North,1,0.0,0.0,37,0.00,,---,0.00,VWS V14.01,2013-07-29 09:22:00,
2013-07-29 05:27:00,50.5,25.2,17.72,North,1,0.0,0.0,37,0.00,,---,0.00,VWS V14.01,2013-07-29 09:27:00,
2013-07-29 05:32:00,50.4,25.1,17.72,North,1,0.0,0.0,37,0.00,,---,0.00,VWS V14.01,2013-07-29 09:32:00,
2013-07-29 05:37:00,50.4,25.1,17.72,North,1,0.0,0.0,37,0.00,,---,0.00,VWS V14.01,2013-07-29 09:37:00,
2013-07-29 05:42:00,50.5,25.2,17.72,North,1,0.0,0.0,37,0.00,,---,0.00,VWS V14.01,2013-07-29 09:42:00,
2013-07-29 05:47:00,50.4,25.1,17.72,North,1,0.0,0.0,37,0.00,,---,0.00,VWS V14.01,2013-07-29 09:47:00,
2013-07-29 05:52:00,50.4,25.1,17.72,North,1,0.0,0.0,37,0.00,,---,0.00,VWS V14.01,2013-07-29 09:52:00,
2013-07-29 05:57:00,50.4,25.1,17.72,North,1,0.0,0.0,37,0.00,,---,0.00,VWS V14.01,2013-07-29 09:57:00,
2013-07-29 06:02:00,50.4,25.1,17.72,North,1,0.0,0.0,37,0.00,,---,0.00,VWS V14.01,2013-07-29 10:02:00,
2013-07-29 06:07:00,50.4,25.1,17.72,North,1,0.0,0.0,37,0.00,,---,0.00,VWS V14.01,2013-07-29 10:07:00,
2013-07-29 06:12:00,50.4,25.1,17.72,North,1,0.0,0.0,37,0.00,,---,0.00,VWS V14.01,2013-07-29 10:12:00,
2013-07-29 06:17:00,50.4,25.1,17.72,North,1,0.0,0.0,37,0.00,,---,0.00,VWS V14.01,2013-07-29 10:17:00,
2013-07-29 06:22:00,50.4,25.1,17.72,North,1,0.0,0.0,37,0.00,,---,0.00,VWS V14.01,2013-07-29 10:22:00,
2013-07-29 06:27:00,50.4,25.1,17.72,North,1,0.0,0.0,37,0.00,,---,0.00,VWS V14.01,2013-07-29 10:27:00,
2013-07-29 06:32:00,50.4,25.1,17.72,North,1,0.0,0.0,37,0.00,,---,0.00,VWS V14.01,2013-07-29 10:32:00,
2013-07-29 06:37:00,50.4,25.1,17.72,North,1,0.0,0.0,37,0.00,,---,0.00,VWS V14.01,2013-07-29 10:37:00,
2013-07-29 06:42:00,50.4,25.1,17.72,North,1,0.0,0.0,37,0.00,,---,0.00,VWS V14.01,2013-07-29 10:42:00,
2013-07-29 06:47:00,50.5,25.2,17.72,North,1,0.0,0.0,37,0.00,,---,0.00,VWS V14.01,2013-07-29 10:47:00,
2013-07-29 06:52:00,50.5,25.2,17.72,North,1,0.0,0.0,37,0.00,,---,0.00,VWS V14.01,2013-07-29 10:52:00,
2013-07-29 06:58:00,50.5,25.2,17.72,North,1,0.0,0.0,37,0.00,,---,0.00,VWS V14.01,2013-07-29 10:58:00,
2013-07-29 07:03:00,50.5,25.2,17.72,North,1,0.0,0.0,37,0.00,,---,0.00,VWS V14.01,2013-07-29 11:03:00,
2013-07-29 07:08:00,50.7,25.4,17.72,North,1,0.0,0.0,37,0.00,,---,0.00,VWS V14.01,2013-07-29 11:08:00,
2013-07-29 07:12:00,50.7,25.4,17.72,North,1,0.0,0.0,37,0.00,,---,0.00,VWS V14.01,2013-07-29 11:12:00,
2013-07-29 07:17:00,50.9,25.6,17.72,North,1,0.0,0.0,37,0.00,,---,0.00,VWS V14.01,2013-07-29 11:17:00,
2013-07-29 07:23:00,51.1,25.7,17.72,North,1,0.0,0.0,37,0.00,,---,0.00,VWS V14.01,2013-07-29 11:23:00,
2013-07-29 07:28:00,51.3,25.9,17.72,North,1,0.0,0.0,37,0.00,,---,0.00,VWS V14.01,2013-07-29 11:28:00,
2013-07-29 07:33:00,51.4,26.0,17.72,North,1,0.0,0.0,37,0.00,,---,0.00,VWS V14.01,2013-07-29 11:33:00,
2013-07-29 07:38:00,51.6,26.2,17.72,North,1,0.0,0.0,37,0.00,,---,0.00,VWS V14.01,2013-07-29 11:38:00,
2013-07-29 07:43:00,51.8,26.4,17.72,North,1,0.0,0.0,37,0.00,,---,0.00,VWS V14.01,2013-07-29 11:43:00,
2013-07-29 07:48:00,52.0,26.5,17.72,North,1,0.0,0.0,37,0.00,,---,0.00,VWS V14.01,2013-07-29 11:48:00,
2013-07-29 07:53:00,52.3,26.9,17.72,North,1,0.0,0.0,37,0.00,,---,0.00,VWS V14.01,2013-07-29 11:53:00,
2013-07-29 07:58:00,52.7,27.2,17.72,North,1,0.0,0.0,37,0.00,,---,0.00,VWS V14.01,2013-07-29 11:58:00,
2013-07-29 08:03:00,53.1,27.5,17.72,North,357,0.0,0.0,37,0.00,,---,0.00,VWS V14.01,2013-07-29 12:03:00,
2013-07-29 08:08:00,53.4,27.8,17.72,North,357,0.0,0.0,37,0.00,,---,0.00,VWS V14.01,2013-07-29 12:08:00,
2013-07-29 08:13:00,53.8,28.1,17.72,North,357,0.0,0.0,37,0.00,,---,0.00,VWS V14.01,2013-07-29 12:13:00,
2013-07-29 08:18:00,54.0,28.3,17.72,North,357,0.0,0.0,37,0.00,,---,0.00,VWS V14.01,2013-07-29 12:18:00,
2013-07-29 08:23:00,54.3,28.6,17.72,North,11,0.0,0.0,37,0.00,,---,0.00,VWS V14.01,2013-07-29 12:23:00,
2013-07-29 08:28:00,54.7,28.3,17.72,North,11,0.0,0.0,36,0.00,,---,0.00,VWS V14.01,2013-07-29 12:28:00,
2013-07-29 08:34:00,55.0,28.6,17.72,North,11,0.0,0.0,36,0.00,,---,0.00,VWS V14.01,2013-07-29 12:34:00,
2013-07-29 08:39:00,55.2,28.8,17.72,North,11,0.0,0.0,36,0.00,,---,0.00,VWS V14.01,2013-07-29 12:39:00,
2013-07-29 08:44:00,55.4,28.9,17.72,North,10,0.0,0.0,36,0.00,,---,0.00,VWS V14.01,2013-07-29 12:44:00,
2013-07-29 08:49:00,55.6,29.1,17.72,NNE,21,0.0,0.0,36,0.00,,---,0.00,VWS V14.01,2013-07-29 12:49:00,
2013-07-29 08:54:00,55.9,29.4,17.72,NNE,21,0.0,0.0,36,0.00,,---,0.00,VWS V14.01,2013-07-29 12:54:00,
2013-07-29 08:59:00,56.5,29.9,17.72,NNE,32,0.0,0.0,36,0.00,,---,0.00,VWS V14.01,2013-07-29 12:59:00,
2013-07-29 09:04:00,56.8,30.2,17.72,NNE,32,0.0,0.0,36,0.00,,---,0.00,VWS V14.01,2013-07-29 13:04:00,
2013-07-29 09:09:00,57.4,30.0,17.72,North,0,0.0,0.0,35,0.00,,---,0.00,VWS V14.01,2013-07-29 13:09:00,
2013-07-29 09:14:00,57.7,30.3,17.72,NNW,348,0.0,0.0,35,0.00,,---,0.00,VWS V14.01,2013-07-29 13:14:00,
2013-07-29 09:19:00,57.9,30.5,17.72,SE,134,0.0,0.0,35,0.00,,---,0.00,VWS V14.01,2013-07-29 13:19:00,
2013-07-29 09:24:00,58.3,30.8,17.72,NE,45,0.0,0.0,35,0.00,,---,0.00,VWS V14.01,2013-07-29 13:24:00,
2013-07-29 09:29:00,58.5,30.9,17.72,NNE,33,0.0,0.0,35,0.00,,---,0.00,VWS V14.01,2013-07-29 13:29:00,
2013-07-29 09:34:00,59.0,31.4,17.72,WNW,286,0.0,0.0,35,0.00,,---,0.00,VWS V14.01,2013-07-29 13:34:00,
2013-07-29 09:40:00,59.4,31.7,17.72,NNW,335,0.0,0.0,35,0.00,,---,0.00,VWS V14.01,2013-07-29 13:40:00,
2013-07-29 09:45:00,59.7,32.0,17.72,East,95,0.0,0.0,35,0.00,,---,0.00,VWS V14.01,2013-07-29 13:45:00,
2013-07-29 09:50:00,59.9,32.2,17.72,East,95,0.0,0.0,35,0.00,,---,0.00,VWS V14.01,2013-07-29 13:50:00,
2013-07-29 09:55:00,60.3,32.5,17.72,North,353,0.0,0.0,35,0.00,,---,0.00,VWS V14.01,2013-07-29 13:55:00,
2013-07-29 10:00:00,60.6,32.1,17.72,NNE,20,0.0,0.0,34,0.00,,---,0.00,VWS V14.01,2013-07-29 14:00:00,
2013-07-29 10:05:00,60.4,32.0,17.72,NNE,14,0.0,0.0,34,0.00,,---,0.00,VWS V14.01,2013-07-29 14:05:00,
2013-07-29 10:10:00,60.8,32.3,17.72,NNE,18,0.0,0.0,34,0.00,,---,0.00,VWS V14.01,2013-07-29 14:10:00,
2013-07-29 10:15:00,61.0,32.4,17.72,West,266,0.0,0.0,34,0.00,,---,0.00,VWS V14.01,2013-07-29 14:15:00,
2013-07-29 10:20:00,61.5,32.9,17.72,NNE,17,0.0,0.0,34,0.00,,---,0.00,VWS V14.01,2013-07-29 14:20:00,
2013-07-29 10:25:00,61.7,33.1,17.72,NNW,329,0.0,0.0,34,0.00,,---,0.00,VWS V14.01,2013-07-29 14:25:00,
2013-07-29 10:31:00,61.9,33.2,17.72,SE,142,0.0,0.0,34,0.00,,---,0.00,VWS V14.01,2013-07-29 14:31:00,
2013-07-29 10:36:00,61.9,33.2,17.72,NNE,26,0.0,0.0,34,0.00,,---,0.00,VWS V14.01,2013-07-29 14:36:00,
2013-07-29 10:41:00,62.4,33.7,17.72,North,0,0.0,0.0,34,0.00,,---,0.00,VWS V14.01,2013-07-29 14:41:00,
2013-07-29 10:46:00,62.6,33.9,17.72,NW,314,0.0,0.0,34,0.00,,---,0.00,VWS V14.01,2013-07-29 14:46:00,
2013-07-29 10:51:00,62.6,33.9,17.72,NW,310,0.0,0.0,34,0.00,,---,0.00,VWS V14.01,2013-07-29 14:51:00,
2013-07-29 10:56:00,62.8,34.0,17.72,East,93,0.0,0.0,34,0.00,,---,0.00,VWS V14.01,2013-07-29 14:56:00,
2013-07-29 11:01:00,63.1,34.3,17.72,ESE,111,0.0,0.0,34,0.00,,---,0.00,VWS V14.01,2013-07-29 15:01:00,
2013-07-29 11:06:00,63.0,34.2,17.72,NE,52,0.0,0.0,34,0.00,,---,0.00,VWS V14.01,2013-07-29 15:06:00,
2013-07-29 11:11:00,63.1,34.3,17.72,SW,227,0.0,0.0,34,0.00,,---,0.00,VWS V14.01,2013-07-29 15:11:00,
2013-07-29 11:16:00,63.5,34.7,17.72,NNW,346,0.0,0.0,34,0.00,,---,0.00,VWS V14.01,2013-07-29 15:16:00,
2013-07-29 11:21:00,64.0,35.1,17.72,WSW,252,0.0,0.0,34,0.00,,---,0.00,VWS V14.01,2013-07-29 15:21:00,
2013-07-29 11:26:00,64.2,35.3,17.72,WNW,285,0.0,0.0,34,0.00,,---,0.00,VWS V14.01,2013-07-29 15:26:00,
2013-07-29 11:31:00,64.0,35.1,17.72,NNE,26,0.0,0.0,34,0.00,,---,0.00,VWS V14.01,2013-07-29 15:31:00,
2013-07-29 11:36:00,64.8,35.0,17.72,South,169,0.0,0.0,33,0.00,,---,0.00,VWS V14.01,2013-07-29 15:36:00,
2013-07-29 11:41:00,65.3,35.5,17.72,NNE,20,0.0,0.0,33,0.00,,---,0.00,VWS V14.01,2013-07-29 15:41:00,
2013-07-29 11:47:00,66.0,36.1,17.72,North,357,0.0,0.0,33,0.00,,---,0.00,VWS V14.01,2013-07-29 15:47:00,
2013-07-29 11:52:00,65.8,36.0,17.72,NNW,343,0.0,0.0,33,0.00,,---,0.00,VWS V14.01,2013-07-29 15:52:00,
2013-07-29 11:57:00,66.2,36.3,17.72,NW,311,0.0,0.0,33,0.00,,---,0.00,VWS V14.01,2013-07-29 15:57:00,
2013-07-29 12:02:00,65.7,35.8,17.72,NW,323,0.0,0.0,33,0.00,,---,0.00,VWS V14.01,2013-07-29 16:02:00,
2013-07-29 12:07:00,65.5,35.6,17.72,SW,236,0.0,0.0,33,0.00,,---,0.00,VWS V14.01,2013-07-29 16:07:00,
2013-07-29 12:12:00,65.7,35.8,17.72,WNW,284,0.0,0.0,33,0.00,,---,0.00,VWS V14.01,2013-07-29 16:12:00,
2013-07-29 12:17:00,66.0,36.1,17.72,WSW,250,0.0,0.0,33,0.00,,---,0.00,VWS V14.01,2013-07-29 16:17:00,
2013-07-29 12:22:00,66.6,36.6,17.72,SW,219,0.0,0.0,33,0.00,,---,0.00,VWS V14.01,2013-07-29 16:22:00,
2013-07-29 12:27:00,66.9,36.9,17.72,NE,42,0.0,0.0,33,0.00,,---,0.00,VWS V14.01,2013-07-29 16:27:00,
2013-07-29 12:32:00,67.8,37.7,17.72,SSW,205,0.0,0.0,33,0.00,,---,0.00,VWS V14.01,2013-07-29 16:32:00,
2013-07-29 12:37:00,67.3,37.2,17.72,SSW,197,0.0,0.0,33,0.00,,---,0.00,VWS V14.01,2013-07-29 16:37:00,
2013-07-29 12:42:00,67.1,37.1,17.72,NW,306,0.0,0.0,33,0.00,,---,0.00,VWS V14.01,2013-07-29 16:42:00,
2013-07-29 12:47:00,67.5,37.4,17.72,NNW,338,0.0,0.0,33,0.00,,---,0.00,VWS V14.01,2013-07-29 16:47:00,
2013-07-29 12:52:00,67.6,37.5,17.72,NNW,328,0.0,0.0,33,0.00,,---,0.00,VWS V14.01,2013-07-29 16:52:00,
2013-07-29 12:57:00,67.6,37.5,17.72,NE,42,0.0,0.0,33,0.00,,---,0.00,VWS V14.01,2013-07-29 16:57:00,
2013-07-29 13:03:00,68.7,37.7,17.72,WNW,292,0.0,0.0,32,0.00,,---,0.00,VWS V14.01,2013-07-29 17:03:00,
2013-07-29 13:08:00,68.9,37.8,17.72,West,261,0.0,0.0,32,0.00,,---,0.00,VWS V14.01,2013-07-29 17:08:00,
2013-07-29 13:13:00,68.0,37.1,17.72,NE,36,0.0,0.0,32,0.00,,---,0.00,VWS V14.01,2013-07-29 17:13:00,
2013-07-29 13:18:00,68.2,37.2,17.72,SW,220,0.0,0.0,32,0.00,,---,0.00,VWS V14.01,2013-07-29 17:18:00,
2013-07-29 13:23:00,67.6,37.5,17.72,WNW,302,0.0,0.0,33,0.00,,---,0.00,VWS V14.01,2013-07-29 17:23:00,
2013-07-29 13:28:00,68.0,37.1,17.72,NNW,329,0.0,0.0,32,0.00,,---,0.00,VWS V14.01,2013-07-29 17:28:00,
2013-07-29 13:33:00,68.7,37.7,17.72,WSW,251,0.0,0.0,32,0.00,,---,0.00,VWS V14.01,2013-07-29 17:33:00,
2013-07-29 13:38:00,68.9,37.8,17.72,NNE,13,0.0,0.0,32,0.00,,---,0.00,VWS V14.01,2013-07-29 17:38:00,
2013-07-29 13:43:00,68.9,37.8,17.72,SW,231,0.0,0.0,32,0.00,,---,0.00,VWS V14.01,2013-07-29 17:43:00,
2013-07-29 13:48:00,68.2,37.2,17.72,WSW,248,0.0,0.0,32,0.00,,---,0.00,VWS V14.01,2013-07-29 17:48:00,
2013-07-29 13:53:00,68.0,37.1,17.72,West,271,0.0,0.0,32,0.00,,---,0.00,VWS V14.01,2013-07-29 17:53:00,
2013-07-29 13:58:00,68.4,37.4,17.72,NE,46,0.0,0.0,32,0.00,,---,0.00,VWS V14.01,2013-07-29 17:58:00,
2013-07-29 14:03:00,69.6,38.5,17.72,NNE,27,0.0,0.0,32,0.00,,---,0.00,VWS V14.01,2013-07-29 18:03:00,
2013-07-29 14:08:00,70.0,38.8,17.72,North,357,0.0,0.0,32,0.00,,---,0.00,VWS V14.01,2013-07-29 18:08:00,
2013-07-29 14:14:00,70.3,39.1,17.72,SW,236,0.0,0.0,32,0.00,,---,0.00,VWS V14.01,2013-07-29 18:14:00,
2013-07-29 14:19:00,69.8,38.6,17.72,ESE,122,0.0,0.0,32,0.00,,---,0.00,VWS V14.01,2013-07-29 18:19:00,
2013-07-29 14:24:00,71.2,39.9,17.72,SSW,202,0.0,0.0,32,0.00,,---,0.00,VWS V14.01,2013-07-29 18:24:00,
2013-07-29 14:29:00,74.1,41.6,17.72,WSW,242,0.0,0.0,31,0.00,,---,0.00,VWS V14.01,2013-07-29 18:29:00,
2013-07-29 14:34:00,72.1,40.7,17.72,SW,234,0.0,0.0,32,0.00,,---,0.00,VWS V14.01,2013-07-29 18:34:00,
2013-07-29 14:39:00,70.9,39.6,17.72,North,0,0.0,0.0,32,0.00,,---,0.00,VWS V14.01,2013-07-29 18:39:00,
2013-07-29 14:44:00,72.1,40.7,17.72,SE,144,0.0,0.0,32,0.00,,---,0.00,VWS V14.01,2013-07-29 18:44:00,
2013-07-29 14:49:00,71.6,40.2,17.72,South,180,0.0,0.0,32,0.00,,---,0.00,VWS V14.01,2013-07-29 18:49:00,
2013-07-29 14:54:00,72.1,40.7,17.72,NNW,331,0.0,0.0,32,0.00,,---,0.00,VWS V14.01,2013-07-29 18:54:00,
2013-07-29 14:59:00,72.0,40.5,17.72,NNW,341,0.0,0.0,32,0.00,,---,0.00,VWS V14.01,2013-07-29 18:59:00,
2013-07-29 15:04:00,72.1,40.7,17.72,South,180,0.0,0.0,32,0.00,,---,0.00,VWS V14.01,2013-07-29 19:04:00,
2013-07-29 15:09:00,71.8,40.4,17.72,NE,38,0.0,0.0,32,0.00,,---,0.00,VWS V14.01,2013-07-29 19:09:00,
2013-07-29 15:14:00,70.0,38.8,17.72,NE,39,0.0,0.0,32,0.00,,---,0.00,VWS V14.01,2013-07-29 19:14:00,
2013-07-29 15:19:00,70.0,38.8,17.72,WNW,294,0.0,0.0,32,0.00,,---,0.00,VWS V14.01,2013-07-29 19:19:00,
2013-07-29 15:25:00,70.3,39.1,17.72,ESE,119,0.0,0.0,32,0.00,,---,0.00,VWS V14.01,2013-07-29 19:25:00,
2013-07-29 15:30:00,70.0,38.8,17.72,SSW,207,0.0,0.0,32,0.00,,---,0.00,VWS V14.01,2013-07-29 19:30:00,
2013-07-29 15:35:00,69.4,38.3,17.72,SSE,163,0.0,0.0,32,0.00,,---,0.00,VWS V14.01,2013-07-29 19:35:00,
2013-07-29 15:40:00,68.5,37.5,17.72,West,275,0.0,0.0,32,0.00,,---,0.00,VWS V14.01,2013-07-29 19:40:00,
2013-07-29 15:45:00,68.4,37.4,17.72,NNE,26,0.0,0.0,32,0.00,,---,0.00,VWS V14.01,2013-07-29 19:45:00,
2013-07-29 15:50:00,68.4,37.4,17.72,NNE,28,0.0,0.0,32,0.00,,---,0.00,VWS V14.01,2013-07-29 19:50:00,
2013-07-29 15:55:00,68.7,37.7,17.72,NE,34,0.0,0.0,32,0.00,,---,0.00,VWS V14.01,2013-07-29 19:55:00,
2013-07-29 16:00:00,70.0,38.8,17.72,NE,41,0.0,0.0,32,0.00,,---,0.00,VWS V14.01,2013-07-29 20:00:00,
2013-07-29 16:05:00,70.3,39.1,17.72,WSW,249,0.0,0.0,32,0.00,,---,0.00,VWS V14.01,2013-07-29 20:05:00,
2013-07-29 16:10:00,71.8,40.4,17.72,West,260,0.0,0.0,32,0.00,,---,0.00,VWS V14.01,2013-07-29 20:10:00,
2013-07-29 16:15:00,73.0,41.5,17.72,NNE,33,0.0,0.0,32,0.00,,---,0.00,VWS V14.01,2013-07-29 20:15:00,
2013-07-29 16:20:00,71.6,40.2,17.72,SSW,201,0.0,0.0,32,0.00,,---,0.00,VWS V14.01,2013-07-29 20:20:00,
2013-07-29 16:26:00,69.4,38.3,17.72,North,357,0.0,0.0,32,0.00,,---,0.00,VWS V14.01,2013-07-29 20:26:00,
2013-07-29 16:31:00,68.7,37.7,17.72,NNW,342,0.0,0.0,32,0.00,,---,0.00,VWS V14.01,2013-07-29 20:31:00,
2013-07-29 16:36:00,70.9,39.6,17.72,WNW,293,0.0,0.0,32,0.00,,---,0.00,VWS V14.01,2013-07-29 20:36:00,
2013-07-29 16:41:00,74.1,41.6,17.72,SE,128,0.0,0.0,31,0.00,,---,0.00,VWS V14.01,2013-07-29 20:41:00,
2013-07-29 16:46:00,74.7,42.0,17.72,NW,304,0.0,0.0,31,0.00,,---,0.00,VWS V14.01,2013-07-29 20:46:00,
2013-07-29 16:51:00,74.3,41.7,17.72,ENE,75,0.0,0.0,31,0.00,,---,0.00,VWS V14.01,2013-07-29 20:51:00,
2013-07-29 16:56:00,73.6,41.1,17.72,WSW,255,0.0,0.0,31,0.00,,---,0.00,VWS V14.01,2013-07-29 20:56:00,
2013-07-29 17:01:00,73.9,41.4,17.72,NNE,15,0.0,0.0,31,0.00,,---,0.00,VWS V14.01,2013-07-29 21:01:00,
2013-07-29 17:06:00,72.3,40.8,17.72,NNW,330,0.0,0.0,32,0.00,,---,0.00,VWS V14.01,2013-07-29 21:06:00,
2013-07-29 17:12:00,70.2,39.0,17.72,SW,224,0.0,0.0,32,0.00,,---,0.00,VWS V14.01,2013-07-29 21:12:00,
2013-07-29 17:17:00,68.4,37.4,17.72,NE,48,0.0,0.0,32,0.00,,---,0.00,VWS V14.01,2013-07-29 21:17:00,
2013-07-29 17:22:00,67.8,37.7,17.72,NW,320,0.0,0.0,33,0.00,,---,0.00,VWS V14.01,2013-07-29 21:22:00,
2013-07-29 17:27:00,67.6,37.5,17.72,WNW,301,0.0,0.0,33,0.00,,---,0.00,VWS V14.01,2013-07-29 21:27:00,
2013-07-29 17:32:00,67.6,37.5,17.72,ENE,72,0.0,0.0,33,0.00,,---,0.00,VWS V14.01,2013-07-29 21:32:00,
2013-07-29 17:37:00,67.6,37.5,17.72,SW,220,0.0,0.0,33,0.00,,---,0.00,VWS V14.01,2013-07-29 21:37:00,
2013-07-29 17:42:00,67.5,37.4,17.72,North,0,0.0,0.0,33,0.00,,---,0.00,VWS V14.01,2013-07-29 21:42:00,
2013-07-29 17:47:00,67.5,37.4,17.72,NW,322,0.0,0.0,33,0.00,,---,0.00,VWS V14.01,2013-07-29 21:47:00,
2013-07-29 17:52:00,67.5,37.4,17.72,NNW,330,0.0,0.0,33,0.00,,---,0.00,VWS V14.01,2013-07-29 21:52:00,
2013-07-29 17:57:00,69.4,38.3,17.72,West,263,0.0,0.0,32,0.00,,---,0.00,VWS V14.01,2013-07-29 21:57:00,
2013-07-29 18:02:00,68.9,37.8,17.72,WSW,258,0.0,0.0,32,0.00,,---,0.00,VWS V14.01,2013-07-29 22:02:00,
2013-07-29 18:07:00,67.6,37.5,17.72,North,0,0.0,0.0,33,0.00,,---,0.00,VWS V14.01,2013-07-29 22:07:00,
2013-07-29 18:12:00,67.1,37.1,17.72,SW,222,0.0,0.0,33,0.00,,---,0.00,VWS V14.01,2013-07-29 22:12:00,
2013-07-29 18:17:00,66.2,36.3,17.72,NNE,32,0.0,0.0,33,0.00,,---,0.00,VWS V14.01,2013-07-29 22:17:00,
2013-07-29 18:22:00,66.0,36.1,17.72,NNW,328,0.0,0.0,33,0.00,,---,0.00,VWS V14.01,2013-07-29 22:22:00,
2013-07-29 18:27:00,65.8,36.0,17.72,NNE,28,0.0,0.0,33,0.00,,---,0.00,VWS V14.01,2013-07-29 22:27:00,
2013-07-29 18:32:00,65.7,35.8,17.72,NNE,29,0.0,0.0,33,0.00,,---,0.00,VWS V14.01,2013-07-29 22:32:00,
2013-07-29 18:37:00,65.5,35.6,17.72,North,353,0.0,0.0,33,0.00,,---,0.00,VWS V14.01,2013-07-29 22:37:00,
2013-07-29 18:42:00,65.3,35.5,17.72,North,353,0.0,0.0,33,0.00,,---,0.00,VWS V14.01,2013-07-29 22:42:00,
2013-07-29 18:48:00,64.9,35.2,17.72,North,353,0.0,0.0,33,0.00,,---,0.00,VWS V14.01,2013-07-29 22:48:00,
2013-07-29 18:53:00,64.8,35.0,17.72,NNW,339,0.0,0.0,33,0.00,,---,0.00,VWS V14.01,2013-07-29 22:53:00,
2013-07-29 18:58:00,65.1,35.3,17.72,NNW,339,0.0,0.0,33,0.00,,---,0.00,VWS V14.01,2013-07-29 22:58:00,
2013-07-29 19:03:00,66.2,36.3,17.72,NNW,339,0.0,0.0,33,0.00,,---,0.00,VWS V14.01,2013-07-29 23:03:00,
2013-07-29 19:08:00,66.7,36.8,17.72,West,267,0.0,0.0,33,0.00,,---,0.00,VWS V14.01,2013-07-29 23:08:00,
2013-07-29 19:13:00,66.4,36.4,17.72,North,8,0.0,0.0,33,0.00,,---,0.00,VWS V14.01,2013-07-29 23:13:00,
2013-07-29 19:18:00,65.7,35.8,17.72,North,8,0.0,0.0,33,0.00,,---,0.00,VWS V14.01,2013-07-29 23:18:00,
2013-07-29 19:23:00,65.1,35.3,17.72,WNW,290,0.0,0.0,33,0.00,,---,0.00,VWS V14.01,2013-07-29 23:23:00,
2013-07-29 19:28:00,65.1,35.3,17.72,WNW,290,0.0,0.0,33,0.00,,---,0.00,VWS V14.01,2013-07-29 23:28:00,
2013-07-29 19:33:00,65.5,35.6,17.72,WNW,290,0.0,0.0,33,0.00,,---,0.00,VWS V14.01,2013-07-29 23:33:00,
2013-07-29 19:38:00,65.5,35.6,17.72,NW,309,0.0,0.0,33,0.00,,---,0.00,VWS V14.01,2013-07-29 23:38:00,
2013-07-29 19:43:00,65.1,35.3,17.72,NW,309,0.0,0.0,33,0.00,,---,0.00,VWS V14.01,2013-07-29 23:43:00,
2013-07-29 19:48:00,64.6,34.8,17.72,NW,309,0.0,0.0,33,0.00,,---,0.00,VWS V14.01,2013-07-29 23:48:00,
2013-07-29 19:53:00,64.0,35.1,17.72,NW,309,0.0,0.0,34,0.00,,---,0.00,VWS V14.01,2013-07-29 23:53:00,
2013-07-29 19:58:00,63.5,34.7,17.72,NW,309,0.0,0.0,34,0.00,,---,0.00,VWS V14.01,2013-07-29 23:58:00,
2013-07-29 20:03:00,63.3,34.5,17.72,NW,309,0.0,0.0,34,0.00,,---,0.00,VWS V14.01,2013-07-30 00:03:00,
2013-07-29 20:08:00,63.1,34.3,17.72,NW,309,0.0,0.0,34,0.00,,---,0.00,VWS V14.01,2013-07-30 00:08:00,
2013-07-29 20:14:00,63.0,34.2,17.72,NW,309,0.0,0.0,34,0.00,,---,0.00,VWS V14.01,2013-07-30 00:14:00,
2013-07-29 20:19:00,63.0,34.2,17.72,NW,309,0.0,0.0,34,0.00,,---,0.00,VWS V14.01,2013-07-30 00:19:00,
2013-07-29 20:24:00,62.8,34.0,17.72,NW,309,0.0,0.0,34,0.00,,---,0.00,VWS V14.01,2013-07-30 00:24:00,
2013-07-29 20:29:00,62.6,33.9,17.72,NW,309,0.0,0.0,34,0.00,,---,0.00,VWS V14.01,2013-07-30 00:29:00,
2013-07-29 20:34:00,62.4,33.7,17.72,NW,309,0.0,0.0,34,0.00,,---,0.00,VWS V14.01,2013-07-30 00:34:00,
2013-07-29 20:39:00,62.2,33.5,17.72,NW,309,0.0,0.0,34,0.00,,---,0.00,VWS V14.01,2013-07-30 00:39:00,
2013-07-29 20:44:00,62.2,33.5,17.72,NW,309,0.0,0.0,34,0.00,,---,0.00,VWS V14.01,2013-07-30 00:44:00,
2013-07-29 20:49:00,62.2,33.5,17.72,NW,309,0.0,0.0,34,0.00,,---,0.00,VWS V14.01,2013-07-30 00:49:00,
2013-07-29 20:54:00,62.2,33.5,17.72,NW,309,0.0,0.0,34,0.00,,---,0.00,VWS V14.01,2013-07-30 00:54:00,
2013-07-29 20:59:00,62.1,33.4,17.72,NW,309,0.0,0.0,34,0.00,,---,0.00,VWS V14.01,2013-07-30 00:59:00,
2013-07-29 21:04:00,62.1,33.4,17.72,NW,309,0.0,0.0,34,0.00,,---,0.00,VWS V14.01,2013-07-30 01:04:00,
2013-07-29 21:09:00,62.1,33.4,17.72,NW,309,0.0,0.0,34,0.00,,---,0.00,VWS V14.01,2013-07-30 01:09:00,
2013-07-29 21:14:00,61.9,33.2,17.72,NW,309,0.0,0.0,34,0.00,,---,0.00,VWS V14.01,2013-07-30 01:14:00,
2013-07-29 21:19:00,61.9,33.2,17.72,NW,309,0.0,0.0,34,0.00,,---,0.00,VWS V14.01,2013-07-30 01:19:00,
2013-07-29 21:24:00,61.9,33.2,17.72,NW,309,0.0,0.0,34,0.00,,---,0.00,VWS V14.01,2013-07-30 01:24:00,
2013-07-29 21:29:00,61.7,33.1,17.72,NW,309,0.0,0.0,34,0.00,,---,0.00,VWS V14.01,2013-07-30 01:29:00,
2013-07-29 21:34:00,61.7,33.1,17.72,NW,309,0.0,0.0,34,0.00,,---,0.00,VWS V14.01,2013-07-30 01:34:00,
2013-07-29 21:39:00,61.7,33.1,17.72,NW,309,0.0,0.0,34,0.00,,---,0.00,VWS V14.01,2013-07-30 01:39:00,
2013-07-29 21:44:00,61.5,32.9,17.72,NW,309,0.0,0.0,34,0.00,,---,0.00,VWS V14.01,2013-07-30 01:44:00,
2013-07-29 21:49:00,61.5,32.9,17.72,NW,309,0.0,0.0,34,0.00,,---,0.00,VWS V14.01,2013-07-30 01:49:00,
2013-07-29 21:54:00,61.3,32.8,17.72,NW,309,0.0,0.0,34,0.00,,---,0.00,VWS V14.01,2013-07-30 01:54:00,
2013-07-29 21:59:00,61.3,32.8,17.72,NW,309,0.0,0.0,34,0.00,,---,0.00,VWS V14.01,2013-07-30 01:59:00,
2013-07-29 22:04:00,61.0,32.4,17.72,NW,309,0.0,0.0,34,0.00,,---,0.00,VWS V14.01,2013-07-30 02:04:00,
2013-07-29 22:09:00,61.0,32.4,17.72,NW,309,0.0,0.0,34,0.00,,---,0.00,VWS V14.01,2013-07-30 02:09:00,
2013-07-29 22:15:00,61.0,32.4,17.72,NW,309,0.0,0.0,34,0.00,,---,0.00,VWS V14.01,2013-07-30 02:15:00,
2013-07-29 22:20:00,60.8,32.3,17.72,NW,309,0.0,0.0,34,0.00,,---,0.00,VWS V14.01,2013-07-30 02:20:00,
2013-07-29 22:25:00,60.8,32.3,17.72,NW,309,0.0,0.0,34,0.00,,---,0.00,VWS V14.01,2013-07-30 02:25:00,
2013-07-29 22:30:00,60.6,32.8,17.72,NW,309,0.0,0.0,35,0.00,,---,0.00,VWS V14.01,2013-07-30 02:30:00,
2013-07-29 22:35:00,60.4,32.7,17.72,NW,309,0.0,0.0,35,0.00,,---,0.00,VWS V14.01,2013-07-30 02:35:00,
2013-07-29 22:40:00,60.3,32.5,17.72,NW,309,0.0,0.0,35,0.00,,---,0.00,VWS V14.01,2013-07-30 02:40:00,
2013-07-29 22:45:00,60.1,32.4,17.72,NW,309,0.0,0.0,35,0.00,,---,0.00,VWS V14.01,2013-07-30 02:45:00,
2013-07-29 22:50:00,59.7,32.0,17.72,NW,309,0.0,0.0,35,0.00,,---,0.00,VWS V14.01,2013-07-30 02:50:00,
2013-07-29 22:55:00,59.4,31.7,17.72,NW,309,0.0,0.0,35,0.00,,---,0.00,VWS V14.01,2013-07-30 02:55:00,
2013-07-29 23:00:00,59.0,31.4,17.72,NW,309,0.0,0.0,35,0.00,,---,0.00,VWS V14.01,2013-07-30 03:00:00,
2013-07-29 23:05:00,58.8,31.2,17.72,NW,309,0.0,0.0,35,0.00,,---,0.00,VWS V14.01,2013-07-30 03:05:00,
2013-07-29 23:11:00,58.5,30.9,17.72,NW,309,0.0,0.0,35,0.00,,---,0.00,VWS V14.01,2013-07-30 03:11:00,
2013-07-29 23:16:00,58.3,30.8,17.72,NW,309,0.0,0.0,35,0.00,,---,0.00,VWS V14.01,2013-07-30 03:16:00,
2013-07-29 23:21:00,58.1,30.6,17.72,NW,309,0.0,0.0,35,0.00,,---,0.00,VWS V14.01,2013-07-30 03:21:00,
2013-07-29 23:26:00,57.9,30.5,17.72,NW,309,0.0,0.0,35,0.00,,---,0.00,VWS V14.01,2013-07-30 03:26:00,
2013-07-29 23:31:00,57.9,31.1,17.72,NW,309,0.0,0.0,36,0.00,,---,0.00,VWS V14.01,2013-07-30 03:31:00,
2013-07-29 23:36:00,57.6,30.8,17.72,NW,309,0.0,0.0,36,0.00,,---,0.00,VWS V14.01,2013-07-30 03:36:00,
2013-07-29 23:42:00,57.6,30.8,17.72,NW,309,0.0,0.0,36,0.00,,---,0.00,VWS V14.01,2013-07-30 03:42:00,
2013-07-29 23:47:00,57.6,30.8,17.72,NW,309,0.0,0.0,36,0.00,,---,0.00,VWS V14.01,2013-07-30 03:47:00,
2013-07-29 23:52:00,57.6,30.8,17.72,NW,309,0.0,0.0,36,0.00,,---,0.00,VWS V14.01,2013-07-30 03:52:00,
2013-07-29 23:57:00,57.6,30.8,17.72,NW,309,0.0,0.0,36,0.00,,---,0.00,VWS V14.01,2013-07-30 03:57:00,